Regional Weather Roundup
Issued by NWS

Home | Current Version | Previous Version | Graphics & Text | Print | Product List | Glossary On
Versions: 1 2 3 4 5 6 7 8 9 10 11 12 13 14 15 16 17 18 19 20 21 22 23 24 25 26 27 28 29 30 31 32 33 34 35 36 37 38 39 40 41 42 43 44 45 46 47 48 49 50
000
ASUS43 KOAX 230902
RWRNE

WEATHER ROUNDUP FOR NEBRASKA
NATIONAL WEATHER SERVICE OMAHA NE
400 AM CDT WED APR 23 2014

NOTES: SATELLITE DATA IS BEING USED TO AUGMENT CLOUD COVER ABOVE
       12000 FEET.
       "FAIR" INDICATES FEW OR NO CLOUDS BELOW 12,000 FEET WITH NO
       SIGNIFICANT WEATHER AND/OR OBSTRUCTIONS TO VISIBILITY.

  * THESE STATIONS DO NOT REPORT WEATHER SUCH AS RAIN...SNOW OR FOG.

NEZ001>004-019>022-054>056-231000-
NEBRASKA PANHANDLE

CITY           SKY/WX    TMP DP  RH WIND       PRES   REMARKS
SCOTTSBLUFF    CLOUDY    56  42  59 E12       29.51F
ALLIANCE       CLOUDY    56  45  66 SE20      29.52F
CHADRON        CLOUDY    62  45  53 S25G35    29.44F
KIMBALL        CLOUDY    55  37  49 SW10      29.55F
SIDNEY         CLOUDY    54  45  71 S14       29.57F
$$

NEZ057>060-069>072-079>082-231000-
SOUTHWEST NEBRASKA

CITY           SKY/WX    TMP DP  RH WIND       PRES   REMARKS
NORTH PLATTE   PTCLDY    58  35  42 SE15      29.64F
IMPERIAL       MOCLDY    59  46  62 S20G30    29.59F
LEXINGTON      MOCLDY    59  34  39 SE23G31   29.69F
MCCOOK         MOCLDY    60  39  45 S26G38    29.63F
OGALLALA       CLOUDY    55  42  62 NE9       29.59F
$$

NEZ005>010-023>029-035>040-094-231000-
NORTH CENTRAL NEBRASKA

CITY           SKY/WX    TMP DP  RH WIND       PRES   REMARKS
VALENTINE      MOCLDY    55  33  43 SE15      29.61F
AINSWORTH      MOCLDY    55  33  42 SE14G23   29.65F
BROKEN BOW     CLOUDY    52  33  48 SE12G23   29.70F
O`NEILL        MOCLDY    56  29  34 SE22G31   29.74F
ORD            MOCLDY    54  33  45 SE14G21   29.74F
THEDFORD       MOCLDY    59  34  39 S22G30    29.63F
$$

NEZ041-046>049-061>064-073>077-083>087-231000-
SOUTH CENTRAL NEBRASKA

CITY           SKY/WX    TMP DP  RH WIND       PRES   REMARKS
GRAND ISLAND   TSTM      53  36  52 SE24G32   29.77F
AURORA         MOCLDY    54  34  47 SE20      29.81F
HASTINGS       LGT RAIN  55  37  50 S26G35    29.77F
HEBRON         MOCLDY    57  33  39 SE12      29.87R
HOLDREGE       MOCLDY    58  35  41 SE30G38   29.71F
KEARNEY *      MOCLDY    54  41  62 S23G29    29.75F
YORK           PTCLDY    52  32  46 SE16      29.85F
$$

NEZ011>018-030>034-042>045-231000-
NORTHEAST NEBRASKA

CITY           SKY/WX    TMP DP  RH WIND       PRES   REMARKS
NORFOLK        MOCLDY    54  34  46 SE17      29.84F
ALBION         MOCLDY    54  33  45 SE24G30   29.81F
BLAIR          PTCLDY    54  33  45 SE13      29.91F
COLUMBUS *     PTCLDY    55  32  41 SE16      29.87S
FREMONT        CLEAR     55  33  43 SE16      29.90F
TEKAMAH        PTCLDY    53  33  46 SE16      29.91F
$$

NEZ050>053-065>068-078-088>093-231000-
SOUTHEAST NEBRASKA

CITY           SKY/WX    TMP DP  RH WIND       PRES   REMARKS
LINCOLN        CLEAR     57  34  41 SE16      29.91F
OMAHA EPPLEY   PTCLDY    55  34  45 SE17      29.93F
BEATRICE       PTCLDY    56  33  40 SE14G21   29.89S
FALLS CITY     MOCLDY    52  36  54 SE12      29.94F
NEBRASKA CITY  MOCLDY    54  36  51 SE13G20   29.94F
PLATTSMOUTH    PTCLDY    55  33  44 SE14      29.93F
$$

NEZ044-045-051>053-067-231000-
OMAHA AREA

CITY           SKY/WX    TMP DP  RH WIND       PRES   REMARKS
OMAHA EPPLEY   PTCLDY    55  34  45 SE17      29.93F
BLAIR          PTCLDY    54  33  45 SE13      29.91F
FREMONT        CLEAR     55  33  43 SE16      29.90F
MILLARD        CLEAR     55  35  47 SE9       29.92F
OFFUTT AFB     PTCLDY    53  36  53 SE12      29.93F
PLATTSMOUTH    PTCLDY    55  33  44 SE14      29.93F
WAHOO          FAIR      52  34  49 SE14      29.90S
$$



USA.gov is the U.S. government's official web portal to all federal, state and local government web resources and services.